Location: Gazon
(48.1318°N, 1.2708°W)
Time: 01:52:07
(UTC+00:00)

Cosmos 909 Rocket - Pass Details

Date: 18 September 2020
Orbit: 991 x 2088 km, 65.9° (Epoch: 29 October)

Event Time Altitude Azimuth Distance (km) Brightness Sun altitude
Rises 21:38:24 0° 323° (NW) 3,965 8.3 -31.8°
Reaches altitude 10° 21:41:12 10° 326° (NW) 2,909 7.3 -32.1°
Enters shadow 21:47:00 62° 8° (N) 1,123 4.3 -32.8°
